TimeEDT,TemperatureF,Dew PointF,Humidity,Sea Level PressureIn,VisibilityMPH,Wind Direction,Wind SpeedMPH,Gust SpeedMPH,PrecipitationIn,Events,Conditions,WindDirDegrees,DateUTC
12:14 AM,44.6,43.2,95,29.98,10.0,SE,23.0,27.6,N/A,,Overcast,140,2013-04-18 04:14:00
12:35 AM,45.1,43.9,95,29.98,7.0,SE,18.4,26.5,N/A,Rain,Light Rain,130,2013-04-18 04:35:00
12:55 AM,45.5,44.1,95,29.95,10.0,ESE,17.3,24.2,N/A,Rain,Light Rain,120,2013-04-18 04:55:00
1:15 AM,45.5,44.2,95,29.96,10.0,SE,15.0,-,N/A,,Mostly Cloudy,130,2013-04-18 05:15:00
1:35 AM,45.9,44.6,95,29.95,10.0,SE,13.8,-,N/A,,Light Drizzle,130,2013-04-18 05:35:00
1:55 AM,46.0,44.8,95,29.95,7.0,SE,6.9,17.3,N/A,Rain,Light Rain,140,2013-04-18 05:55:00
2:15 AM,46.4,45.0,95,29.91,10.0,ESE,6.9,-,N/A,Rain,Light Rain,110,2013-04-18 06:15:00
2:35 AM,46.6,45.5,96,29.90,10.0,ESE,11.5,-,N/A,,Overcast,120,2013-04-18 06:35:00
2:55 AM,46.6,45.5,96,29.88,10.0,ESE,12.7,-,N/A,,Overcast,110,2013-04-18 06:55:00
3:15 AM,46.6,45.5,96,29.86,10.0,ESE,13.8,20.7,N/A,,Mostly Cloudy,120,2013-04-18 07:15:00
3:35 AM,46.6,45.1,95,29.85,10.0,SE,11.5,-,N/A,,Scattered Clouds,130,2013-04-18 07:35:00
3:55 AM,46.6,45.3,95,29.83,10.0,SE,10.4,-,N/A,,Scattered Clouds,130,2013-04-18 07:55:00
4:15 AM,46.8,45.5,95,29.83,10.0,SE,13.8,-,N/A,,Mostly Cloudy,130,2013-04-18 08:15:00
4:35 AM,46.8,45.5,95,29.81,7.0,SE,12.7,18.4,N/A,,Scattered Clouds,130,2013-04-18 08:35:00
4:55 AM,46.9,45.5,95,29.80,10.0,SE,13.8,-,N/A,,Scattered Clouds,140,2013-04-18 08:55:00
5:15 AM,47.5,45.9,94,29.79,10.0,SE,15.0,23.0,N/A,,Scattered Clouds,140,2013-04-18 09:15:00
5:35 AM,48.2,46.4,93,29.78,10.0,SSE,10.4,18.4,N/A,,Scattered Clouds,150,2013-04-18 09:35:00
5:55 AM,49.5,47.8,94,29.77,7.0,SSE,12.7,19.6,N/A,,Scattered Clouds,150,2013-04-18 09:55:00
6:15 AM,50.0,48.2,94,29.77,7.0,South,9.2,16.1,N/A,,Mostly Cloudy,170,2013-04-18 10:15:00
6:35 AM,50.4,49.1,95,29.80,7.0,WNW,12.7,16.1,N/A,,Overcast,290,2013-04-18 10:35:00
6:55 AM,50.9,49.3,94,29.78,7.0,NNW,3.5,-,N/A,,Overcast,340,2013-04-18 10:55:00
7:15 AM,50.5,49.3,95,29.76,5.0,Calm,Calm,-,N/A,,Overcast,0,2013-04-18 11:15:00
7:35 AM,50.9,49.8,96,29.75,5.0,ESE,4.6,-,N/A,,Mostly Cloudy,120,2013-04-18 11:35:00
7:55 AM,50.7,49.8,97,29.74,5.0,ESE,6.9,-,N/A,,Mostly Cloudy,120,2013-04-18 11:55:00
8:14 AM,53.4,52.9,98,29.72,5.0,SSE,10.4,-,N/A,,Mostly Cloudy,160,2013-04-18 12:14:00
8:35 AM,55.6,54.3,96,29.71,5.0,SSE,12.7,-,N/A,,Clear,160,2013-04-18 12:35:00
8:55 AM,57.2,55.6,94,29.72,7.0,South,13.8,19.6,N/A,,Clear,170,2013-04-18 12:55:00
9:15 AM,59.4,57.2,93,29.70,10.0,South,17.3,24.2,N/A,,Mostly Cloudy,170,2013-04-18 13:15:00
9:35 AM,61.5,58.3,89,29.68,10.0,South,12.7,19.6,N/A,,Scattered Clouds,170,2013-04-18 13:35:00
9:55 AM,63.9,59.5,86,29.66,10.0,South,15.0,21.9,N/A,,Clear,170,2013-04-18 13:55:00
10:15 AM,65.8,60.6,83,29.66,10.0,South,13.8,27.6,N/A,,Clear,180,2013-04-18 14:15:00
10:35 AM,67.5,61.5,81,29.65,10.0,South,19.6,26.5,N/A,,Scattered Clouds,190,2013-04-18 14:35:00
10:55 AM,69.6,62.6,78,29.65,10.0,South,13.8,17.3,N/A,,Mostly Cloudy,190,2013-04-18 14:55:00
11:15 AM,70.9,63.1,76,29.65,10.0,South,19.6,27.6,N/A,,Mostly Cloudy,190,2013-04-18 15:15:00
11:35 AM,72.0,63.3,74,29.63,10.0,South,23.0,33.4,N/A,,Mostly Cloudy,190,2013-04-18 15:35:00
11:55 AM,73.9,63.7,70,29.63,10.0,SSW,26.5,34.5,N/A,,Mostly Cloudy,200,2013-04-18 15:55:00
12:15 PM,73.4,63.3,71,29.61,10.0,South,20.7,34.5,N/A,,Mostly Cloudy,190,2013-04-18 16:15:00
12:35 PM,75.0,63.9,68,29.60,10.0,South,25.3,36.8,N/A,,Mostly Cloudy,190,2013-04-18 16:35:00
12:54 PM,74.7,63.7,69,29.58,10.0,South,24.2,36.8,N/A,,Overcast,180,2013-04-18 16:54:00
1:15 PM,74.7,63.7,69,29.56,10.0,South,23.0,34.5,N/A,,Overcast,190,2013-04-18 17:15:00
1:35 PM,74.5,63.3,68,29.55,10.0,South,23.0,39.1,N/A,,Overcast,190,2013-04-18 17:35:00
2:15 PM,64.6,61.2,89,29.60,10.0,SSW,15.0,23.0,N/A,,Mostly Cloudy,210,2013-04-18 18:15:00
2:34 PM,65.5,62.2,89,29.60,10.0,SSW,16.1,24.2,N/A,Rain,Light Rain,210,2013-04-18 18:34:00
2:55 PM,66.4,62.4,87,29.60,10.0,SSW,15.0,21.9,N/A,Rain,Light Rain,210,2013-04-18 18:55:00
3:15 PM,67.1,62.1,84,29.60,10.0,SW,12.7,26.5,N/A,,Overcast,220,2013-04-18 19:15:00
3:34 PM,67.5,61.9,82,29.60,10.0,SW,16.1,23.0,N/A,,Mostly Cloudy,220,2013-04-18 19:34:00
3:55 PM,67.6,61.7,81,29.61,10.0,SSW,15.0,23.0,N/A,,Mostly Cloudy,210,2013-04-18 19:55:00
4:35 PM,66.2,61.0,83,29.63,10.0,SW,9.2,19.6,N/A,Rain,Rain,230,2013-04-18 20:35:00
4:55 PM,65.3,61.0,86,29.63,7.0,SW,13.8,18.4,N/A,Rain,Light Rain,220,2013-04-18 20:55:00
5:15 PM,64.4,61.0,89,29.62,10.0,SSW,10.4,-,N/A,Rain,Light Rain,210,2013-04-18 21:15:00
5:35 PM,63.9,60.8,90,29.62,10.0,South,9.2,-,N/A,,Light Drizzle,190,2013-04-18 21:35:00
5:55 PM,63.1,60.8,92,29.62,10.0,SSW,9.2,-,N/A,Rain,Light Rain,200,2013-04-18 21:55:00
6:15 PM,63.0,60.8,93,29.62,10.0,SSW,9.2,-,N/A,Rain,Light Rain,200,2013-04-18 22:15:00
6:35 PM,62.6,60.8,94,29.61,10.0,South,15.0,19.6,N/A,,Overcast,180,2013-04-18 22:35:00
6:55 PM,62.2,60.3,93,29.61,10.0,South,10.4,-,N/A,Rain,Light Rain,190,2013-04-18 22:55:00
7:15 PM,61.9,60.1,94,29.62,10.0,SSW,11.5,17.3,N/A,Rain,Light Rain,200,2013-04-18 23:15:00
7:35 PM,61.7,59.9,94,29.61,10.0,SSW,10.4,18.4,N/A,Rain,Light Rain,210,2013-04-18 23:35:00
7:55 PM,61.7,59.9,94,29.62,10.0,SW,13.8,19.6,N/A,,Overcast,220,2013-04-18 23:55:00
8:15 PM,61.3,59.4,93,29.63,10.0,SSW,10.4,16.1,N/A,,Overcast,200,2013-04-19 00:15:00
8:35 PM,61.2,59.2,93,29.63,10.0,SSW,9.2,18.4,N/A,,Light Drizzle,210,2013-04-19 00:35:00
8:55 PM,60.8,59.0,94,29.62,10.0,SSW,8.1,-,N/A,Rain,Light Rain,210,2013-04-19 00:55:00
9:15 PM,60.4,59.0,95,29.63,10.0,SSW,10.4,-,N/A,Rain,Light Rain,210,2013-04-19 01:15:00
9:35 PM,60.3,59.0,96,29.63,10.0,SSW,4.6,-,N/A,Rain,Light Rain,200,2013-04-19 01:35:00
9:54 PM,60.1,58.8,96,29.63,10.0,SSW,8.1,-,N/A,Rain,Light Rain,200,2013-04-19 01:54:00
10:15 PM,59.7,58.6,96,29.61,10.0,SSE,9.2,-,N/A,Rain,Light Rain,160,2013-04-19 02:15:00
10:35 PM,59.4,58.5,97,29.59,10.0,SE,11.5,-,N/A,Rain,Light Rain,140,2013-04-19 02:35:00
10:55 PM,59.2,58.5,97,29.60,10.0,South,12.7,-,N/A,Rain,Light Rain,170,2013-04-19 02:55:00
11:35 PM,59.0,58.3,97,29.59,10.0,SSE,11.5,17.3,N/A,Rain,Light Rain,160,2013-04-19 03:35:00
11:55 PM,59.0,58.1,97,29.57,7.0,SSE,11.5,-,N/A,Rain,Rain,150,2013-04-19 03:55:00